Theta_e
310 309 309 309 310 310 310 310 310 311 311 312 313 314 313 313 314 314 314 315 316 314 313 314 314 315 315 314 316 317 318 318 318 319 319 316 315 315 316 316 317 316 315 316 316 315 314 314 314 314 314 314 314 313 313 313 313 313 313 313 314 314 314 314 314 314 314 315 317 318 318 319 319 319 320 321 321 322 322 322 322 321 321 321 321 321 321
310 310 310 310 310 310 310 310 310 310 310 311 313 313 312 313 313 313 314 317 317 314 313 313 313 314 314 314 315 315 315 315 315 317 317 316 314 314 314 315 316 316 315 315 315 314 313 313 313 313 313 313 313 313 312 312 311 312 312 311 311 311 311 311 312 312 313 314 315 316 316 318 318 317 319 320 320 320 322 323 323 322 323 322 322 322 321
311 310 309 309 309 309 309 308 309 309 310 311 312 312 313 313 314 313 316 318 317 314 312 313 313 313 313 314 314 314 314 314 314 314 315 315 315 313 313 314 314 315 314 314 314 313 313 312 312 312 312 312 312 312 311 311 311 310 310 310 310 310 309 309 310 310 311 311 312 312 313 316 317 317 318 320 320 320 321 322 322 323 324 324 323 323 323
311 310 309 309 309 309 309 309 310 310 310 312 312 313 313 314 314 314 315 315 314 312 313 313 313 313 313 313 314 314 314 314 314 314 313 314 314 314 313 313 313 314 313 314 314 313 312 312 312 311 311 311 312 312 310 310 310 309 309 309 309 309 309 309 309 310 310 310 310 311 311 312 313 315 316 317 318 318 320 320 320 322 322 323 323 323 323
310 309 308 309 309 309 310 310 311 311 311 312 312 313 313 314 314 314 313 312 312 312 312 312 312 313 313 313 313 314 314 314 314 315 314 313 313 313 313 313 313 313 313 313 313 312 311 311 311 310 310 311 311 311 310 310 310 310 310 310 310 310 310 310 310 310 310 310 310 310 311 311 311 311 313 315 316 317 318 319 319 320 320 321 321 322 322
310 309 309 310 310 310 310 310 310 311 311 311 311 312 312 312 311 311 311 311 311 311 311 311 312 312 312 312 313 313 314 313 313 314 314 314 314 314 315 313 312 313 313 313 312 311 310 310 310 309 309 310 311 310 310 310 310 310 310 310 311 310 310 310 310 310 310 310 310 310 310 310 310 310 311 312 314 317 317 317 318 319 319 319 319 319 320
309 308 308 309 309 310 309 309 310 310 309 310 310 310 310 309 309 310 310 310 310 310 310 311 311 311 311 310 310 311 311 311 311 312 312 313 314 315 315 315 315 314 313 312 311 310 310 310 309 308 309 310 310 309 310 310 310 309 309 309 310 310 309 309 309 310 311 310 310 310 310 310 310 310 310 311 312 315 316 316 316 317 318 318 318 318 319
308 308 307 309 309 308 308 310 311 311 310 311 311 311 310 309 309 309 309 309 309 309 309 309 309 309 309 309 309 310 309 309 309 309 309 312 314 314 313 314 313 312 311 310 310 310 310 309 308 308 309 309 309 309 309 309 309 309 309 309 309 309 309 308 309 310 311 310 310 310 310 310 310 310 310 311 312 314 315 316 316 316 316 317 317 318 318
307 307 308 308 308 308 310 311 311 310 310 311 311 310 310 309 309 308 308 308 308 308 308 308 308 308 308 308 309 309 308 308 308 307 308 311 313 312 311 312 312 311 310 309 309 309 309 308 309 308 309 309 309 309 309 309 309 309 308 308 308 308 308 307 308 309 310 310 310 310 309 309 309 310 310 310 311 313 315 316 316 315 315 315 316 316 317
307 307 307 307 308 308 310 311 309 308 308 309 309 309 308 308 307 307 307 307 307 306 306 306 307 307 307 308 309 308 307 307 307 306 307 308 309 309 309 310 310 310 309 308 308 308 308 308 307 307 307 308 308 308 308 308 309 309 308 308 308 308 308 307 307 308 309 309 309 309 309 309 309 309 309 310 310 312 314 315 315 315 315 315 315 315 316
306 306 307 307 307 309 310 309 307 307 306 306 307 307 307 306 305 306 306 305 305 305 305 305 306 306 307 307 307 306 305 306 306 306 306 307 307 308 308 308 308 308 308 307 307 307 307 306 306 307 307 307 308 308 308 308 308 308 308 308 308 308 307 307 306 307 307 308 309 309 309 310 310 310 310 309 310 311 313 314 314 314 314 314 314 315 314
306 307 306 306 307 308 308 307 305 306 306 305 306 307 306 304 304 305 304 304 304 304 304 304 305 305 306 306 306 305 305 305 306 306 305 305 305 306 306 306 306 306 305 305 306 306 306 306 306 306 307 307 307 307 307 307 307 307 307 307 307 307 307 307 306 306 306 307 308 308 309 310 310 310 310 310 310 310 312 313 314 313 313 313 314 313 312
306 307 306 306 307 307 306 305 304 304 305 305 305 305 304 303 303 303 303 303 303 303 303 304 304 304 305 305 304 304 304 305 305 305 305 305 305 305 305 305 304 304 304 304 305 305 305 305 305 306 306 306 306 306 306 306 306 307 307 307 307 307 307 306 306 305 305 306 307 307 309 310 310 310 310 310 309 310 311 312 313 313 313 313 312 310 308
305 305 305 305 306 305 304 303 303 303 304 304 303 303 302 302 302 302 302 302 302 302 302 303 303 303 303 303 303 303 303 303 304 304 304 305 305 304 304 304 304 304 304 304 304 304 304 304 305 305 305 305 306 306 306 306 306 307 306 306 306 306 306 306 306 306 305 305 306 307 307 308 309 310 310 310 309 309 310 311 313 313 313 313 311 308 305
304 304 304 305 305 304 303 302 302 302 303 303 302 301 301 301 301 301 301 301 302 302 301 301 302 302 302 302 302 302 302 302 303 303 304 304 304 304 304 304 304 304 304 304 304 304 304 304 304 304 304 304 304 305 306 306 306 306 306 306 306 306 306 305 306 305 305 305 305 306 307 307 308 309 310 310 310 310 311 313 313 312 311 311 309 306 303
303 303 304 304 303 302 302 301 301 301 301 301 301 300 300 300 300 300 300 300 301 300 300 300 301 300 301 301 301 301 301 301 302 302 303 303 303 303 303 303 303 303 303 303 303 303 303 303 303 303 303 303 304 304 305 305 305 306 306 306 306 306 306 306 305 305 305 305 305 305 306 307 307 308 310 311 311 311 312 313 313 311 309 308 307 304 302
301 302 302 303 302 301 301 301 300 300 300 300 300 300 299 299 299 299 299 299 299 299 299 299 299 299 300 300 300 300 301 301 301 301 301 301 301 302 302 302 302 302 303 303 303 303 303 303 303 303 303 303 304 304 304 304 305 305 305 306 306 306 306 306 305 305 305 305 305 305 306 307 307 308 309 311 311 312 312 312 312 310 308 307 305 303 301
300 300 300 301 300 300 300 299 299 299 300 299 299 299 299 299 299 299 299 299 299 299 299 298 298 298 299 299 299 299 300 300 300 300 300 300 300 300 301 301 301 302 302 302 302 302 302 303 303 303 302 303 303 303 303 304 304 305 305 305 305 305 305 305 305 305 306 305 306 306 306 307 307 307 309 310 311 311 311 311 310 309 306 304 303 302 300
299 299 299 299 299 299 299 298 299 299 299 299 299 299 299 299 299 299 299 299 299 298 298 298 298 298 298 298 298 299 299 299 299 300 300 300 300 300 300 300 300 301 301 301 302 302 302 302 302 302 302 302 303 303 303 303 303 304 304 304 304 304 305 305 304 305 305 305 305 306 306 306 307 307 308 310 310 309 310 310 309 307 304 302 301 301 300
298 298 298 298 298 298 298 298 298 298 298 298 299 299 299 299 299 299 299 299 299 298 298 298 298 299 299 299 299 299 299 299 299 299 300 300 299 300 299 299 300 300 301 301 301 301 301 301 301 302 302 302 302 303 303 303 303 303 303 303 303 303 303 303 303 303 303 303 304 305 305 306 307 308 308 308 308 308 308 308 308 306 303 301 301 301 300
297 298 298 298 298 298 298 298 298 298 298 298 299 299 299 299 299 299 299 299 299 299 299 299 299 299 299 299 299 299 299 299 299 299 299 300 300 299 299 299 300 300 300 301 300 301 301 301 301 301 302 302 302 303 302 302 302 302 302 302 302 302 302 303 303 303 303 303 304 304 305 307 307 307 307 307 307 307 307 307 307 305 303 302 301 300 299
297 297 298 298 298 298 298 298 298 298 298 299 299 299 298 299 299 299 300 300 299 300 300 300 299 299 299 300 300 300 299 299 300 300 299 299 299 299 300 300 300 300 300 301 301 301 301 301 302 302 302 302 302 302 302 302 302 302 302 302 302 302 302 302 303 303 303 304 303 304 306 306 305 305 306 306 306 306 306 306 304 303 302 300 299 298 298
297 298 298 298 298 298 298 298 298 298 299 299 299 299 299 299 299 299 299 299 299 299 299 300 300 299 299 300 301 300 299 300 300 300 300 300 300 300 300 300 300 301 301 301 301 301 301 301 302 301 301 302 302 302 302 302 302 302 302 302 302 302 302 302 303 303 303 303 304 305 306 305 304 303 303 303 303 303 303 302 301 300 300 299 298 298 298
298 298 298 298 298 298 298 298 298 298 299 299 299 299 299 298 299 299 299 299 299 299 299 299 300 300 300 300 300 299 299 300 300 300 300 300 300 300 300 300 300 300 300 300 300 301 301 301 301 301 301 301 301 301 301 302 302 302 302 303 302 302 302 302 302 303 303 303 304 305 305 303 302 301 299 298 298 299 299 299 299 299 299 298 298 298 298
298 298 298 298 298 298 298 298 298 299 299 299 298 298 299 298 299 299 299 299 300 299 299 299 300 300 300 300 300 299 300 300 300 299 299 299 299 300 300 300 300 300 300 300 300 300 300 300 300 301 301 301 301 301 301 301 302 302 302 302 303 302 302 302 303 303 303 304 305 305 303 301 300 299 298 297 295 295 296 297 298 298 297 297 297 297 297
298 298 298 297 297 298 298 298 298 298 298 299 298 298 299 299 299 299 299 299 299 299 299 299 299 298 298 298 298 298 298 298 298 298 298 298 299 299 299 299 299 299 299 299 299 299 299 299 300 300 300 300 300 300 301 301 301 302 302 302 303 302 303 303 303 303 304 305 305 304 301 300 298 298 297 296 295 294 294 294 294 295 295 295 296 296 295
298 298 297 297 298 298 298 298 298 298 299 299 298 298 298 298 298 298 298 298 297 297 297 297 296 296 296 296 296 296 296 296 296 296 296 297 297 297 297 298 298 298 298 298 298 298 298 298 298 298 299 299 299 299 300 300 301 301 302 302 302 303 303 303 303 304 306 305 304 302 300 299 298 297 295 295 295 294 294 293 293 292 292 293 293 293 292
298 297 297 297 297 297 298 298 298 298 298 298 298 298 297 297 297 297 296 296 295 295 295 294 294 294 294 294 293 293 293 294 294 294 294 294 295 295 295 295 296 296 296 296 297 297 297 298 298 298 299 299 299 299 299 300 300 300 301 301 302 302 303 303 304 305 305 304 302 300 299 298 296 295 294 294 294 294 293 293 292 292 291 291 291 291 291
297 297 297 297 298 298 298 298 298 298 297 297 297 297 296 296 296 295 295 294 294 294 293 292 292 292 292 292 292 292 292 292 292 293 293 293 293 293 293 294 294 294 295 295 296 297 297 297 297 298 298 299 299 300 300 300 300 300 300 301 301 302 303 303 304 304 303 301 300 298 297 296 295 294 294 294 294 293 293 292 292 291 291 291 291 291 291
297 297 297 297 297 298 297 297 297 297 296 296 296 296 295 295 294 294 294 294 293 293 292 292 292 291 291 291 291 291 291 291 291 291 291 291 292 292 292 292 293 294 294 295 295 295 295 295 296 297 297 298 299 299 300 300 300 301 301 301 301 302 303 304 304 302 300 299 297 297 295 295 295 295 295 295 294 294 294 293 292 291 291 291 291 291 291
297 297 297 297 297 297 297 297 296 295 295 295 295 294 294 294 294 293 293 293 293 292 292 291 291 291 291 290 290 290 290 291 290 290 291 291 291 291 291 292 293 293 293 293 293 293 293 295 296 297 297 297 298 299 299 300 301 301 302 302 303 303 303 303 302 300 298 297 296 295 295 295 295 295 295 295 295 295 294 294 293 292 291 291 291 291 291
297 297 297 297 296 296 296 296 295 295 294 294 294 294 294 294 293 293 293 292 292 292 291 291 291 291 291 290 290 289 290 290 290 290 290 291 291 291 291 291 292 292 292 292 292 292 293 294 296 297 298 298 298 299 299 300 301 301 302 302 302 301 301 300 299 298 297 296 295 295 295 296 296 296 296 296 296 296 295 295 294 294 293 292 292 293 293
297 297 297 296 296 296 296 295 295 294 294 294 294 294 294 294 294 293 293 293 292 292 291 291 291 291 290 290 289 289 289 290 290 290 290 290 291 291 291 291 291 291 291 292 292 293 293 294 296 297 298 298 298 298 299 300 300 300 300 300 300 299 298 298 297 296 296 296 296 296 296 296 296 296 296 296 297 296 296 296 295 295 295 294 294 295 294
297 297 296 296 295 295 295 295 294 294 294 293 294 294 294 294 294 293 293 292 292 291 291 290 290 291 290 290 289 289 289 289 290 289 289 289 290 290 290 291 291 292 292 293 293 293 294 295 296 297 298 298 298 298 298 299 299 298 298 298 297 297 296 297 297 297 297 297 297 297 297 296 297 297 297 297 297 297 297 297 296 296 295 295 294 294 294
297 297 296 296 295 295 295 294 294 294 294 293 294 294 294 293 293 293 292 292 291 290 290 290 290 291 291 290 290 289 289 289 289 289 289 289 289 289 290 290 291 291 292 292 292 293 294 295 297 297 297 297 297 297 298 297 297 297 297 297 297 297 297 297 297 297 297 297 297 297 297 297 297 297 297 298 298 298 297 297 296 296 295 294 293 293 293
297 297 296 296 295 295 295 295 295 295 294 294 294 293 293 292 292 292 292 292 291 290 290 290 291 291 291 290 290 289 289 289 289 289 289 289 289 289 289 289 289 290 290 291 291 292 294 296 297 297 297 297 297 298 298 297 297 297 297 297 297 297 297 297 297 297 297 297 297 297 297 297 298 298 298 298 298 298 297 297 296 296 295 294 293 293 293
296 296 296 295 295 295 295 295 295 295 294 293 293 292 292 292 292 292 292 291 291 290 290 290 291 291 291 291 290 289 289 289 289 289 289 289 289 288 288 288 288 288 288 289 290 291 294 296 296 297 297 297 297 297 298 298 298 298 298 298 298 298 298 298 298 298 298 298 298 298 298 298 298 298 298 298 297 297 297 297 296 296 295 295 295 295 294
296 296 295 295 295 295 295 295 294 294 294 293 292 292 291 291 291 291 291 291 291 290 290 290 291 291 292 291 291 290 289 289 289 289 289 289 289 288 288 288 288 288 288 288 289 291 293 295 296 296 296 297 297 297 297 297 298 298 298 298 298 298 298 298 298 298 298 298 298 298 298 298 297 297 297 296 296 296 296 296 296 296 295 295 295 295 295
295 295 295 295 295 295 295 294 293 293 293 293 292 292 291 291 291 291 291 291 291 290 290 290 290 291 291 291 291 291 290 289 289 289 289 289 289 288 288 288 287 287 287 288 289 290 292 293 294 295 295 296 296 297 297 297 297 297 297 297 297 297 297 297 297 297 297 297 297 297 297 296 296 296 295 295 295 295 296 296 296 295 295 295 295 294 294
296 295 295 295 295 294 294 293 293 292 292 292 292 292 291 291 290 290 290 291 291 291 290 290 290 290 291 291 292 291 291 290 289 288 288 288 289 288 288 288 287 287 287 288 289 290 291 292 293 293 294 295 296 296 296 296 296 296 296 297 297 297 297 297 296 296 296 296 295 295 295 295 295 295 295 295 295 295 295 295 295 295 294 294 294 293 292
296 296 295 295 295 294 294 293 293 292 292 292 292 292 291 291 290 290 290 290 290 290 290 290 290 290 290 290 291 291 291 290 289 288 287 287 288 288 288 287 287 287 287 288 288 289 290 291 292 292 293 294 295 296 296 296 295 295 295 295 296 296 296 296 296 296 296 295 295 295 294 294 294 294 295 295 294 294 294 294 294 294 294 293 293 292 292
296 296 296 295 295 294 294 294 293 293 292 292 292 292 291 291 290 290 290 289 290 290 290 290 290 290 289 289 290 290 290 290 290 289 287 287 287 287 287 287 287 287 288 288 288 289 290 290 291 292 293 293 294 295 295 295 295 295 295 295 295 295 295 296 296 296 296 295 295 294 294 294 294 294 293 293 293 293 293 293 292 292 292 292 292 291 291
296 296 296 295 295 294 294 294 293 293 293 292 292 292 291 291 290 290 290 289 289 289 290 290 290 290 289 289 289 289 289 289 289 289 288 287 286 286 287 287 287 287 288 288 288 288 289 289 290 291 292 292 293 293 294 294 294 294 294 294 294 294 294 294 294 294 294 294 294 294 293 293 293 292 292 292 292 291 291 291 291 291 291 290 290 290 289
297 297 296 296 295 295 294 294 293 293 292 292 291 291 291 291 290 290 290 289 289 289 289 289 289 290 290 289 289 289 289 288 288 288 288 287 287 286 286 286 286 287 287 288 288 287 288 289 289 290 291 291 292 292 292 292 292 292 292 292 293 293 293 294 293 293 293 293 292 292 292 292 291 291 291 290 290 290 289 289 289 289 289 289 288 288 288
297 297 297 296 296 295 295 294 293 293 293 292 291 291 291 291 290 290 289 289 289 288 288 289 289 289 289 289 289 288 288 288 288 287 287 287 287 286 286 286 286 286 286 287 287 287 287 288 289 289 290 290 291 291 291 291 291 291 291 291 291 291 291 292 292 292 292 292 292 292 291 290 290 289 289 289 288 288 288 288 288 288 287 287 287 286 286
298 297 297 297 296 296 294 293 293 292 293 293 292 291 290 291 291 290 289 289 289 288 288 288 288 288 288 289 289 288 288 287 287 287 287 286 286 286 286 286 285 285 285 286 286 286 287 287 288 288 289 289 289 290 290 289 289 289 290 290 290 290 290 290 290 290 290 290 290 290 290 289 289 288 288 288 287 287 287 287 287 287 286 286 285 285 285
297 297 297 297 296 295 294 293 292 292 293 293 293 291 290 290 290 290 290 289 289 289 288 288 288 287 287 288 288 288 288 287 287 287 286 286 286 286 286 286 286 286 285 285 285 285 286 286 287 287 288 288 288 288 288 288 288 287 287 288 289 289 289 289 289 289 289 289 289 289 289 288 288 288 288 287 287 287 287 287 287 286 286 286 285 285 285
297 298 297 297 296 294 293 293 292 292 293 293 292 291 291 290 290 291 290 290 290 289 289 288 288 287 287 287 287 287 287 287 287 286 286 286 286 285 285 286 286 287 287 286 285 285 285 286 286 287 287 287 287 287 287 287 287 286 286 286 287 287 287 288 288 288 288 288 288 288 288 288 288 287 287 287 287 286 286 286 286 286 285 285 284 284 284
297 297 297 296 296 294 293 293 293 293 293 292 291 291 291 291 291 291 291 290 290 290 289 289 288 288 287 287 287 287 287 287 286 286 285 285 285 285 285 285 286 287 287 286 286 285 285 285 285 286 286 287 287 286 286 286 285 286 286 286 286 286 286 286 286 287 287 287 287 287 287 287 287 287 287 286 286 286 285 285 285 285 285 284 284 284 283
296 297 296 296 295 294 293 293 293 293 293 292 291 291 291 291 292 292 291 290 290 290 289 289 289 288 287 287 287 287 286 286 286 286 286 285 285 285 285 285 286 286 286 286 286 285 284 285 285 285 286 286 286 286 286 285 285 285 285 285 285 285 285 285 285 286 286 286 286 286 286 286 286 286 286 286 285 285 285 285 285 285 285 284 283 283 283
296 296 296 296 295 294 294 293 293 293 293 293 292 292 291 291 292 291 291 291 291 290 290 289 288 288 287 287 287 287 286 286 286 286 286 286 285 285 285 285 286 286 286 286 286 285 284 284 284 285 285 285 285 285 285 285 285 285 284 284 284 284 284 284 284 284 284 285 285 286 286 286 285 285 285 285 285 285 285 284 284 284 284 284 283 283 283
296 295 295 295 295 294 294 293 293 293 293 293 292 292 291 291 291 290 290 290 291 291 290 289 289 288 288 287 286 286 286 285 285 285 285 285 285 285 285 285 285 285 285 286 286 286 285 285 284 284 284 285 285 285 284 284 284 284 284 284 284 284 284 284 284 283 283 283 284 284 284 284 284 284 284 284 284 284 284 283 282 282 282 282 282 283 283
Wind_Speed
14 15 16 15 14 14 14 14 15 15 14 12 10 10 12 10 8 9 9 10 10 11 12 10 9 8 7 7 6 4 4 1 5 8 9 9 9 9 9 8 7 7 6 5 5 8 10 12 13 13 13 13 13 13 13 12 12 12 12 13 14 13 13 11 9 8 7 7 6 4 3 3 3 4 4 3 4 7 11 16 20 21 20 19 20 21 22
14 14 15 14 14 14 14 16 17 15 14 14 13 12 14 14 13 13 13 12 10 9 11 11 10 10 10 9 7 6 6 5 3 5 8 9 9 9 8 8 8 6 5 5 5 7 10 11 12 12 12 12 12 13 12 11 11 10 10 11 12 11 11 10 9 8 7 6 5 3 3 3 3 3 3 4 4 7 11 15 17 18 17 18 20 21 21
11 12 13 13 14 15 15 17 17 16 16 16 14 12 12 13 13 13 11 10 8 8 10 10 9 9 10 9 9 9 8 7 8 7 8 9 9 9 8 7 9 7 4 5 5 6 7 8 10 10 10 10 11 11 10 9 8 7 6 6 7 7 7 6 6 6 5 5 5 3 2 2 1 2 3 4 5 8 11 12 11 10 10 12 15 17 20
8 10 12 13 14 15 17 16 15 16 15 12 10 10 10 9 10 11 10 8 6 6 9 10 9 9 9 11 12 11 8 7 7 7 10 12 10 9 10 6 7 8 6 5 5 5 6 7 8 8 8 9 10 9 8 8 6 5 5 5 5 4 4 4 4 4 3 3 3 3 2 1 0 1 2 3 5 6 7 8 8 7 7 9 10 12 15
8 10 13 13 12 12 11 9 8 10 12 10 9 10 10 9 7 7 7 6 6 8 9 9 10 10 10 11 11 11 11 11 10 8 6 9 9 9 11 7 8 9 7 7 7 3 2 4 6 6 6 8 9 8 7 8 8 8 9 8 8 7 5 4 4 3 3 2 3 3 2 1 1 2 4 5 5 6 7 7 7 8 8 8 10 11 12
8 11 12 11 10 8 7 6 5 6 8 9 9 10 11 9 7 7 7 7 8 10 9 7 7 8 9 9 9 10 11 10 10 12 11 6 3 5 7 4 6 6 5 11 10 2 2 3 4 2 3 6 6 5 6 7 7 6 8 8 8 8 7 6 6 5 4 3 2 1 1 1 2 3 5 6 7 7 7 8 8 8 9 10 12 12 10
8 9 9 9 9 6 6 7 6 5 6 8 9 10 11 10 9 11 11 8 8 10 10 7 4 5 7 9 8 6 7 10 11 11 12 10 10 8 6 5 4 5 10 13 9 3 2 3 2 3 3 5 5 6 6 6 5 4 4 5 6 6 5 5 5 6 5 4 2 1 1 2 3 4 5 7 8 8 8 9 9 10 10 12 13 13 11
7 7 7 8 8 8 9 8 10 10 6 7 7 7 9 9 10 11 11 9 8 9 12 10 8 7 7 8 9 5 6 8 10 11 12 11 9 6 7 9 8 9 10 8 6 4 3 4 5 5 2 3 3 4 5 5 5 5 4 4 4 5 5 4 5 5 5 3 2 2 2 2 3 5 6 7 8 8 9 9 9 10 10 11 12 12 12
6 7 7 8 9 10 8 4 10 10 8 8 8 5 7 9 10 10 10 9 9 10 12 13 12 11 8 5 6 8 9 8 7 8 10 9 8 6 7 10 8 6 5 2 1 3 1 4 6 5 3 2 3 3 4 5 5 6 5 5 6 5 5 5 5 5 4 4 3 3 3 3 4 4 5 6 7 8 9 9 10 11 11 10 10 10 12
6 7 7 7 9 7 2 5 7 7 7 8 7 4 4 7 10 10 9 10 9 9 10 12 12 10 7 3 4 10 13 12 9 8 7 7 7 7 7 7 3 2 4 4 4 3 2 3 6 8 7 6 5 5 6 6 6 6 6 7 6 5 5 5 4 4 5 5 4 4 4 5 5 4 5 6 8 9 9 10 11 10 10 10 8 6 10
6 6 6 6 6 3 3 5 5 6 6 7 7 4 2 7 11 10 9 9 10 10 10 11 10 7 5 3 4 8 13 13 9 7 8 11 10 4 2 1 4 7 5 3 3 6 7 8 9 9 8 7 7 7 8 7 7 7 6 6 5 5 5 5 5 5 6 5 5 6 6 6 5 5 6 7 8 9 10 11 11 11 12 10 5 6 10
7 7 7 6 3 1 5 7 8 8 7 6 5 4 1 8 11 10 10 10 10 10 9 9 8 6 5 5 6 9 12 12 10 10 10 13 16 12 7 6 7 9 10 8 4 6 10 13 13 10 8 9 10 10 9 9 9 9 8 8 8 7 7 7 7 8 7 7 8 8 7 7 6 6 7 7 9 10 10 11 11 11 11 8 10 10 8
7 6 7 6 1 2 4 7 8 9 8 4 3 3 3 7 10 10 10 10 9 9 9 7 6 6 7 8 8 10 12 11 11 13 13 12 14 14 13 15 17 15 12 10 9 10 13 14 13 11 11 12 12 11 11 11 11 11 10 10 9 9 9 9 10 10 10 10 10 9 8 8 7 8 8 9 10 11 12 12 11 8 5 10 15 13 9
6 5 7 7 2 1 3 7 8 7 5 3 2 4 6 8 9 9 10 10 9 9 9 7 7 8 9 11 11 11 12 12 10 12 14 13 12 13 15 16 17 16 14 13 13 15 15 15 14 14 14 14 14 14 13 12 12 12 12 11 11 11 12 12 12 13 13 12 11 10 9 9 9 10 10 11 12 13 14 11 7 5 8 14 16 13 11
5 6 7 6 3 2 4 7 7 5 4 4 4 6 7 8 9 10 10 10 9 9 9 9 9 10 11 12 12 12 13 13 12 13 15 15 14 15 16 17 17 17 17 16 17 17 17 16 16 17 17 17 17 16 15 15 14 14 14 14 14 13 14 14 14 14 14 14 13 12 11 12 12 11 11 12 12 13 12 8 8 10 13 17 17 14 13
3 5 5 2 2 3 6 7 6 5 5 6 6 7 8 8 9 9 9 9 11 11 10 10 11 11 12 12 13 13 14 13 13 14 16 17 17 17 17 18 19 19 19 18 19 20 20 19 19 19 20 20 18 17 17 17 16 16 16 15 15 15 16 16 16 16 16 16 16 15 14 15 15 14 13 13 11 8 7 9 12 14 15 16 17 15 14
2 5 5 3 3 5 7 6 6 8 9 8 9 10 10 9 9 9 9 10 11 12 12 12 12 11 12 13 13 14 15 15 15 16 18 19 20 19 20 21 21 21 22 22 22 22 23 22 21 20 20 20 19 18 18 17 16 16 16 16 16 17 16 16 16 16 16 16 16 16 16 16 16 15 12 10 7 5 8 10 12 14 15 15 15 16 15
6 7 7 8 8 9 9 8 8 9 10 10 10 10 9 9 9 9 10 11 12 13 13 13 13 13 14 15 15 15 16 16 16 18 20 22 23 23 23 23 23 23 24 24 24 23 23 24 23 21 20 21 22 21 21 19 18 18 18 19 20 20 19 19 18 17 16 16 15 15 15 15 15 14 9 6 8 9 10 11 12 14 16 16 15 16 16
7 6 7 9 10 11 11 11 10 10 10 11 11 10 10 11 11 11 12 13 14 15 15 16 16 16 17 17 16 16 16 16 17 18 20 22 24 25 25 24 24 24 24 24 23 22 21 22 22 21 21 22 23 23 23 22 22 23 24 23 21 20 20 21 21 19 17 16 14 14 15 14 12 10 6 6 11 12 12 13 13 15 17 18 17 17 17
7 7 8 10 12 12 11 9 8 9 11 13 13 12 12 13 13 13 13 14 14 14 15 16 17 18 18 18 17 16 15 15 15 17 20 24 25 25 26 26 24 22 22 23 22 21 20 20 20 20 20 21 22 23 23 21 21 23 22 20 19 19 19 18 17 17 17 15 14 15 15 10 6 4 4 6 10 13 13 14 16 18 18 20 20 20 20
7 7 8 10 10 10 9 10 11 11 12 13 14 14 13 14 14 14 14 14 14 14 14 15 16 17 17 16 17 17 15 14 15 18 22 25 27 26 26 26 24 21 20 21 23 23 22 22 21 21 22 22 22 23 23 23 24 24 23 20 20 19 19 18 17 17 17 16 16 15 11 5 4 5 6 8 9 10 11 14 18 21 22 22 22 23 23
6 6 8 10 9 8 9 11 13 13 13 13 14 14 13 14 14 13 14 14 14 15 15 15 15 15 14 14 15 16 15 15 17 20 22 24 26 26 24 24 25 24 22 22 23 24 24 23 23 23 24 23 23 23 24 25 25 25 24 22 20 19 18 17 17 17 17 17 17 14 7 10 11 10 9 8 8 9 10 12 16 20 22 22 24 25 25
7 9 11 9 7 8 10 11 13 14 13 14 14 13 13 14 14 14 14 15 16 16 16 18 17 15 14 15 15 14 15 17 19 21 22 21 22 24 23 21 21 22 22 21 22 23 23 23 23 24 24 24 24 24 25 25 24 23 22 21 20 19 17 17 18 19 18 17 16 11 9 15 16 14 14 11 9 9 11 13 16 18 20 21 22 23 23
8 9 10 9 8 10 11 13 14 13 11 11 12 12 12 13 15 15 14 15 16 15 14 17 19 17 15 17 16 14 15 19 20 21 21 21 20 21 20 19 19 20 21 21 22 22 22 23 23 23 23 24 24 24 23 23 22 22 22 21 20 19 19 19 19 19 18 17 13 9 14 17 18 20 21 20 17 15 15 18 21 20 19 20 20 20 19
8 8 9 9 10 10 11 11 12 11 11 11 11 11 12 13 14 14 14 13 14 13 11 12 15 16 16 16 17 15 15 17 18 18 19 19 19 19 19 20 20 21 21 20 20 20 21 22 22 22 22 23 23 23 23 23 23 23 24 23 22 21 21 20 18 18 17 15 12 15 17 18 21 25 25 25 24 23 22 22 23 22 21 20 20 19 17
7 8 9 10 10 10 10 10 10 11 13 14 11 11 13 15 14 14 14 13 13 14 13 12 14 16 17 17 17 17 17 18 19 19 18 18 18 18 19 19 20 20 20 20 20 20 21 21 21 22 23 23 23 23 23 23 24 24 23 23 23 23 22 20 18 17 14 13 16 19 19 20 24 26 26 28 28 27 27 25 22 21 22 20 18 16 15
7 7 9 10 10 10 11 11 10 10 11 12 12 12 14 15 15 14 14 14 15 17 17 17 18 18 18 18 19 19 19 20 20 19 18 18 19 19 19 19 19 20 20 20 20 21 21 21 21 22 24 25 24 24 24 23 23 24 24 24 22 22 22 21 18 14 12 15 18 20 22 23 24 25 26 27 27 25 24 24 21 20 20 20 17 15 14
7 7 8 8 8 10 12 13 11 8 8 10 11 12 13 14 13 12 11 13 15 16 17 18 19 18 17 17 18 18 19 18 18 18 18 19 19 20 20 20 20 20 20 19 20 20 19 18 19 21 23 24 25 26 26 26 25 26 25 24 22 21 20 20 17 14 15 19 22 24 24 25 26 27 26 25 24 24 24 24 23 20 19 20 18 15 14
7 7 8 8 8 9 11 11 9 7 8 10 12 12 12 11 11 10 10 12 14 14 15 17 18 17 17 18 17 16 16 16 16 17 18 19 19 19 19 20 20 19 18 17 15 13 12 12 14 16 19 20 22 24 25 25 26 27 26 25 24 21 18 17 18 18 21 24 27 28 27 27 30 30 27 25 25 25 23 23 22 20 19 20 20 17 15
8 8 9 9 9 9 9 8 7 7 9 10 10 10 10 11 10 9 10 12 12 12 14 17 18 19 19 18 17 16 15 15 15 16 16 16 15 15 15 16 15 14 11 8 6 7 8 9 11 13 14 15 16 18 21 23 24 25 25 26 26 24 21 20 21 23 26 29 31 30 29 28 30 30 28 26 25 23 21 21 21 20 20 20 20 18 16
10 10 11 9 8 9 8 7 6 7 8 8 9 9 10 10 10 10 11 11 10 12 16 19 20 20 20 18 17 17 16 15 14 15 14 12 10 11 12 10 4 1 2 3 5 8 11 14 15 14 12 12 13 12 15 22 23 21 20 21 22 23 24 24 26 30 33 33 32 31 29 27 28 28 27 25 22 20 20 20 19 19 20 19 18 17 16
10 11 10 9 8 8 7 6 6 7 7 7 8 9 9 9 10 10 10 10 10 13 16 18 19 20 20 19 17 17 17 15 14 15 17 15 13 12 11 11 11 10 9 10 12 17 20 21 20 17 12 10 11 8 3 14 17 16 16 16 19 23 27 29 32 35 35 34 31 29 28 28 27 26 24 23 21 20 20 20 18 19 19 18 16 16 16
9 9 8 7 7 7 6 6 6 6 7 7 8 9 10 10 10 10 10 12 13 14 15 16 18 20 20 18 18 19 19 16 15 18 21 19 15 11 8 8 14 20 22 23 25 26 25 23 21 19 17 14 14 14 14 16 19 22 23 24 26 29 33 35 35 34 33 31 29 28 29 28 25 24 23 22 21 21 22 21 19 18 18 16 15 17 17
7 6 4 4 5 4 5 5 5 5 6 7 8 9 10 11 11 11 12 13 13 13 14 17 20 20 18 18 19 22 21 15 12 16 21 19 15 10 8 11 20 28 31 31 31 29 27 25 23 21 20 20 20 21 25 30 33 33 32 32 32 32 33 33 32 30 29 28 28 28 27 25 23 23 22 21 20 20 21 19 17 16 16 15 15 16 15
4 3 3 4 4 4 4 5 5 5 6 6 6 7 9 10 10 11 11 11 11 13 16 19 20 18 17 19 21 23 23 19 15 16 18 17 14 13 16 22 27 28 30 32 33 31 28 27 25 24 24 26 26 26 28 32 34 34 33 33 32 31 29 28 26 26 25 26 26 26 24 22 22 22 21 19 18 19 18 16 17 18 16 13 12 11 8
3 3 3 3 3 4 5 5 5 6 6 5 4 5 8 8 8 8 8 8 10 14 17 19 18 16 17 19 20 21 21 20 18 18 18 18 17 19 25 30 29 25 25 28 31 31 29 29 29 27 27 28 30 30 29 30 31 33 33 32 29 27 26 25 24 24 24 23 23 22 21 19 19 19 18 17 16 14 14 17 19 17 13 12 11 9 7
4 4 4 3 3 4 4 5 5 5 6 5 5 6 7 6 6 7 7 8 9 13 17 17 15 14 14 16 17 20 22 22 21 20 20 20 20 24 28 29 26 22 20 21 26 28 28 28 29 29 27 26 27 28 28 28 28 27 27 25 24 24 24 24 23 22 23 24 24 23 21 19 17 17 17 16 16 16 17 18 18 16 13 11 10 8 7
4 4 4 3 2 3 3 3 4 5 6 6 6 6 6 5 4 5 7 7 7 10 14 16 14 13 14 15 16 19 23 25 24 22 20 20 22 26 27 25 23 21 19 19 24 27 27 26 28 29 27 23 22 24 26 28 28 26 25 25 25 25 25 24 23 22 23 24 24 23 21 20 19 18 17 17 17 17 16 15 14 13 12 10 8 7 7
4 4 3 1 1 2 2 3 4 5 6 7 7 6 6 6 5 6 7 8 8 9 12 14 13 12 13 13 12 14 19 23 24 23 20 20 21 23 23 23 25 25 22 22 25 28 27 25 25 27 26 22 20 20 22 25 27 26 26 26 26 26 26 25 24 24 24 23 22 21 20 18 17 16 16 16 16 16 15 14 12 11 10 9 8 7 7
5 4 3 1 1 1 1 2 3 4 4 5 6 6 6 7 7 7 8 9 9 9 11 13 13 12 12 13 11 10 13 18 23 24 22 21 20 19 19 22 26 28 27 27 29 30 30 29 27 26 25 23 19 18 18 21 24 25 25 24 24 24 23 22 22 21 21 21 20 19 18 18 17 16 15 14 14 13 13 12 11 10 9 9 8 7 7
5 4 4 3 2 2 2 1 2 3 4 4 5 6 7 7 7 8 9 9 10 10 10 12 12 12 12 13 13 12 12 14 18 21 22 22 19 16 15 18 24 27 28 30 31 31 31 32 31 29 27 25 22 19 18 19 21 23 23 23 23 23 22 21 20 18 18 17 17 16 16 15 15 15 14 14 13 12 11 11 10 9 9 8 7 7 6
6 5 5 3 2 3 4 2 1 2 3 3 4 5 6 6 7 7 8 9 10 10 10 11 12 13 13 13 13 14 14 14 15 17 19 20 19 16 13 15 21 24 25 28 31 32 32 32 31 29 28 26 24 22 21 20 21 21 22 21 21 21 20 19 18 17 16 16 15 15 14 14 14 15 14 14 13 12 11 10 10 10 9 8 8 7 6
7 7 6 4 3 4 5 2 1 1 2 3 4 4 5 6 6 7 7 8 9 9 10 10 11 11 12 13 13 13 14 15 14 14 14 16 19 19 16 15 18 21 22 23 27 30 30 29 28 27 26 25 24 23 22 21 20 20 20 20 20 19 18 17 17 16 15 15 15 15 14 14 14 14 14 13 12 12 12 11 10 10 9 8 8 8 7
9 9 8 6 5 6 6 3 0 1 1 3 3 4 4 5 6 6 7 7 8 9 9 9 10 10 10 11 12 12 13 13 13 13 11 11 14 18 18 17 17 20 21 20 22 26 28 27 25 24 23 23 22 23 23 22 21 20 20 20 19 18 17 17 16 16 15 15 15 15 15 15 15 14 14 13 12 12 12 11 11 10 9 8 7 7 7
10 10 9 7 8 10 7 3 2 1 0 1 2 3 4 4 5 6 6 6 7 8 8 8 9 9 9 8 9 10 11 12 12 12 11 10 10 13 16 17 18 20 20 19 19 22 25 25 23 22 22 21 21 21 21 21 20 20 19 19 18 18 17 17 17 16 15 14 14 14 14 14 14 14 14 13 13 12 12 11 10 9 8 7 7 6 6
9 9 8 9 11 11 5 2 3 1 2 2 2 4 4 3 3 5 6 5 6 8 8 8 8 9 9 8 7 8 10 11 12 11 11 10 9 9 12 14 16 19 20 20 20 21 23 22 22 22 21 21 21 20 20 19 19 19 19 18 17 16 16 16 16 16 15 15 15 14 14 14 14 14 13 12 12 12 11 11 10 9 8 7 6 6 5
9 9 8 10 11 9 4 2 3 3 4 4 2 4 4 2 2 4 5 5 6 7 7 7 8 8 9 9 9 8 8 9 10 10 10 10 9 10 11 12 12 14 17 20 21 21 21 21 21 21 20 20 20 20 19 18 18 18 18 17 16 15 15 14 14 14 14 14 14 14 14 13 13 12 12 12 11 11 10 10 9 9 8 7 6 6 6
10 9 9 12 12 9 6 5 5 6 6 4 2 4 4 3 3 3 3 4 4 6 6 6 6 7 8 8 9 9 9 8 8 8 9 9 8 9 11 13 12 11 11 14 17 19 20 21 21 20 19 19 19 19 18 18 17 16 16 16 15 14 13 13 12 12 12 12 12 12 12 12 11 11 11 11 11 10 10 10 9 8 7 7 7 6 6
10 9 10 14 14 10 8 7 7 7 7 6 5 5 5 5 5 4 4 3 4 5 5 5 5 6 8 8 9 9 9 9 8 8 7 8 7 8 9 12 13 12 11 11 13 15 17 18 19 20 19 18 18 17 17 17 16 16 15 15 14 14 13 13 13 12 12 11 11 11 11 11 11 11 11 10 10 10 10 11 11 9 8 7 7 7 6
10 10 11 15 15 11 10 9 9 9 8 7 7 7 7 7 7 6 5 5 3 4 5 5 5 6 7 7 8 8 9 8 8 8 7 7 7 7 7 8 9 10 10 10 11 12 15 16 17 17 17 17 17 16 15 15 15 15 14 13 13 13 13 13 13 13 12 12 11 11 11 11 10 11 11 10 10 10 9 10 11 11 9 8 7 7 7
11 11 12 14 15 13 11 10 11 12 10 9 8 7 7 6 5 4 5 4 4 4 5 5 5 5 6 6 7 7 8 7 8 7 6 6 7 7 7 7 8 9 9 9 9 10 12 14 16 15 15 14 14 15 14 14 14 14 14 13 13 12 12 11 12 12 12 11 11 10 10 10 10 10 10 10 10 9 9 8 9 10 10 9 9 8 7
12 12 12 12 13 13 12 12 14 15 12 9 9 8 8 7 5 5 5 5 4 3 5 5 5 5 6 6 7 7 7 7 8 8 7 7 7 7 7 8 8 9 9 9 10 9 10 11 13 14 14 13 12 13 13 12 13 13 12 12 12 12 12 12 11 11 11 11 10 10 9 9 10 10 10 9 9 9 9 9 9 9 10 10 11 10 9
Wind_Direction
267 272 277 280 282 282 282 282 280 281 290 290 276 266 272 276 275 278 289 295 291 297 306 310 316 316 309 298 287 281 292 272 146 161 183 196 196 184 174 165 149 136 132 127 125 121 117 116 115 114 115 115 113 112 112 114 115 116 122 126 124 120 117 115 119 122 123 128 134 142 149 148 151 155 154 161 179 202 226 234 236 237 237 240 244 245 244
275 274 276 282 284 283 283 282 279 278 280 278 272 273 277 275 273 276 281 285 285 288 291 296 310 315 304 295 285 267 260 263 236 195 194 207 218 216 198 170 150 141 134 131 130 126 125 127 127 125 125 124 122 119 117 117 116 116 117 118 117 115 116 120 124 127 126 123 128 143 165 176 181 170 174 196 205 215 227 230 231 229 223 222 231 238 242
282 281 282 283 281 280 280 281 283 286 285 281 279 281 280 276 274 276 284 292 296 301 304 304 301 296 295 300 297 282 266 255 247 232 222 230 237 237 229 185 155 155 158 147 140 129 125 124 125 128 132 132 131 127 126 126 121 118 116 114 112 106 107 117 121 123 128 126 128 135 141 162 175 171 192 213 221 222 224 230 237 236 225 223 230 239 246
279 283 280 278 281 283 280 279 284 290 288 285 288 286 276 275 283 286 290 289 291 327 342 329 315 312 318 324 323 318 318 309 283 243 224 230 233 240 255 235 159 163 183 163 135 128 140 143 140 146 154 151 144 144 150 154 151 158 166 157 142 132 133 142 134 125 128 131 133 132 118 101 294 272 256 250 249 246 242 243 246 246 244 245 244 247 254
284 286 287 293 297 287 277 281 298 302 296 297 310 310 300 303 315 308 295 298 325 345 340 328 335 345 339 334 334 332 336 341 339 331 281 236 224 236 255 242 171 178 183 139 118 114 177 158 138 144 153 144 135 138 150 156 160 167 172 166 156 155 162 159 146 140 148 160 157 145 146 186 257 279 281 275 267 263 262 260 253 246 249 256 257 259 261
279 286 297 300 287 270 274 294 315 322 317 314 316 315 310 317 337 330 313 325 349 346 336 337 356 352 336 335 337 331 334 343 349 351 346 335 323 293 277 242 181 187 141 106 104 74 347 58 61 64 121 119 127 149 161 158 159 169 175 168 161 163 165 163 163 167 169 167 157 143 189 247 267 276 280 281 277 266 261 265 261 247 241 248 257 261 258
273 285 292 277 260 263 285 301 323 327 307 305 309 309 311 319 331 330 324 330 344 342 339 344 343 325 326 327 324 336 2 4 5 3 358 2 10 360 0 34 60 83 86 90 95 81 22 50 8 273 187 144 163 184 174 161 161 185 194 174 165 169 169 171 176 174 171 170 171 217 287 296 295 292 288 285 281 270 260 260 262 255 246 242 247 253 252
274 276 268 257 267 288 288 314 6 11 344 333 334 318 313 324 340 345 337 330 340 349 348 341 331 333 343 326 315 342 30 18 13 12 4 10 21 25 64 77 68 69 80 87 101 96 27 335 287 258 195 153 192 197 178 178 188 200 206 203 198 187 176 193 200 180 170 170 179 223 264 281 285 290 290 288 284 275 264 260 262 264 258 246 240 241 242
264 265 265 265 276 287 289 351 31 27 14 14 13 343 321 335 359 9 355 342 0 16 4 351 349 351 349 328 334 5 14 7 13 13 4 21 43 41 65 86 82 64 53 24 191 148 172 291 295 305 324 296 251 239 226 222 215 208 209 221 223 203 195 219 214 182 180 202 211 221 242 258 269 278 281 285 286 277 266 261 260 261 263 263 257 241 230
256 263 270 271 269 278 340 55 51 42 30 15 1 332 322 358 15 18 6 354 2 11 2 353 353 348 332 320 12 12 2 359 15 18 352 1 45 54 49 53 45 269 268 278 285 295 295 287 296 299 291 276 263 257 255 250 241 234 229 231 229 218 222 234 224 205 212 221 222 228 245 256 263 274 278 280 281 275 266 263 263 261 261 264 264 238 219
258 258 261 268 265 280 17 20 18 28 28 3 338 302 305 1 3 2 1 357 355 357 359 353 346 335 318 334 13 360 347 345 357 2 341 339 354 18 136 198 248 259 283 303 277 294 304 292 282 281 283 284 277 266 264 264 259 257 258 259 258 256 260 269 268 254 242 234 239 247 251 252 255 266 274 279 279 272 264 259 259 261 261 252 216 185 203
252 254 259 267 262 58 37 20 3 352 350 346 316 269 305 360 355 353 358 356 351 351 352 346 333 321 319 335 345 338 331 329 333 341 346 345 340 330 310 316 327 335 347 349 312 283 279 270 264 264 272 279 277 273 272 269 265 265 266 266 265 265 268 273 274 268 256 244 243 244 242 243 249 255 261 267 271 269 264 256 252 258 257 220 161 154 178
250 252 256 261 236 82 25 8 357 338 331 333 297 276 332 348 341 343 345 342 339 338 336 329 320 322 329 330 326 323 319 319 327 333 331 327 325 317 313 324 334 334 328 319 305 292 285 282 282 281 275 270 270 271 269 266 264 263 259 259 260 262 266 269 271 271 266 258 251 242 237 239 244 248 254 260 261 262 262 254 248 254 232 164 146 137 138
253 251 254 263 256 165 297 337 352 340 321 323 322 324 329 326 327 332 328 322 322 321 318 315 311 315 320 318 314 314 313 312 314 313 307 302 300 297 296 304 311 310 303 298 289 281 281 286 289 287 282 275 269 266 264 263 266 266 264 263 261 260 260 261 262 264 265 264 257 248 244 244 244 245 248 253 255 257 258 249 223 194 164 151 144 136 132
256 252 251 260 259 236 292 329 353 3 347 340 338 329 320 317 320 320 314 309 309 308 311 313 310 309 310 308 304 302 302 303 302 299 299 298 293 291 290 289 289 289 288 286 284 284 287 288 286 286 286 282 277 273 269 267 269 270 268 266 263 263 263 263 264 265 265 264 260 252 246 245 247 246 244 247 253 254 246 218 167 159 159 150 143 140 137
268 256 252 234 199 265 304 324 337 342 336 328 321 315 310 308 309 307 302 305 312 316 316 312 307 305 304 301 300 297 293 294 294 293 295 295 293 292 290 287 286 286 283 280 282 284 283 279 275 272 272 270 268 266 263 264 266 267 266 266 265 264 264 263 264 264 263 261 258 252 249 249 247 241 238 243 250 243 214 175 155 153 154 149 148 146 140
305 281 293 306 283 289 310 330 336 334 329 319 314 310 304 304 311 313 310 312 316 318 313 307 303 298 294 293 293 291 289 288 287 285 285 285 285 285 284 282 282 281 278 276 276 277 276 275 273 272 274 274 272 269 267 267 267 265 266 269 266 264 264 265 263 262 263 264 261 253 248 249 246 241 238 236 223 175 153 160 162 155 151 153 154 151 145
304 297 298 303 308 317 328 331 323 318 315 311 315 319 320 327 337 335 325 316 312 310 305 300 296 293 292 291 287 284 283 283 284 285 284 283 281 280 278 277 277 275 273 272 271 271 272 273 273 273 274 274 272 270 269 265 260 256 255 256 255 253 252 252 254 256 257 261 266 265 256 250 248 246 239 205 170 156 158 175 174 158 154 158 156 151 149
296 298 302 309 314 316 319 319 314 314 322 332 341 344 339 336 333 327 318 309 305 304 302 298 295 294 293 291 287 285 285 282 281 281 281 280 280 279 278 277 276 275 275 273 272 271 272 275 276 273 270 269 268 268 267 262 257 252 245 242 247 251 248 244 244 247 248 250 258 267 267 264 259 253 236 184 169 172 184 193 181 165 163 164 160 156 153
286 292 306 318 318 311 310 313 317 325 336 341 340 335 327 320 315 310 307 304 303 303 301 297 295 295 295 295 295 295 295 293 291 288 285 283 281 279 281 281 278 278 280 280 281 281 281 284 288 285 279 277 276 276 276 275 275 273 264 255 257 264 269 269 265 262 262 259 253 253 259 267 266 241 224 204 188 185 193 197 185 174 172 172 169 165 160
286 289 313 337 339 326 317 320 325 332 335 330 323 318 314 309 305 302 302 301 299 297 295 293 291 291 293 294 292 291 292 291 290 289 290 290 288 285 287 289 289 289 292 294 294 295 293 291 291 289 286 283 281 281 281 280 280 281 280 277 272 268 270 277 278 274 272 267 258 252 245 214 168 175 191 198 194 195 209 210 195 184 180 177 172 163 156
290 307 336 351 343 316 309 318 322 323 320 313 309 309 308 306 307 309 309 306 301 296 293 290 287 284 282 280 282 286 287 285 285 286 287 289 289 287 289 295 295 291 289 289 288 289 289 287 283 280 278 277 276 273 271 270 269 269 271 273 270 264 260 261 265 268 267 261 259 256 216 160 154 156 159 171 190 207 219 213 195 184 177 169 163 156 150
300 316 328 333 318 299 303 314 314 314 314 312 310 314 319 318 317 318 315 311 306 301 297 295 294 289 286 287 290 292 290 289 289 289 287 288 290 288 288 291 291 288 285 284 282 281 281 279 277 275 273 271 269 266 265 267 268 269 269 268 264 258 253 249 250 254 256 258 261 248 179 156 153 143 132 134 154 176 182 174 166 165 161 156 156 155 148
302 309 315 316 308 303 305 308 307 309 316 317 317 324 329 324 321 322 321 315 312 310 308 306 303 302 302 304 303 300 297 295 295 296 295 295 295 292 289 288 287 286 284 283 281 281 282 279 276 276 274 272 269 267 266 265 264 263 263 265 262 256 250 246 243 242 246 253 249 198 155 150 149 140 130 122 119 125 140 149 151 149 145 144 147 148 142
306 310 314 311 305 302 304 307 308 310 314 317 319 325 329 327 325 325 325 322 322 323 321 314 312 314 317 314 310 308 305 303 305 308 308 301 295 292 289 286 285 285 286 286 284 284 283 282 280 280 279 277 274 271 266 263 261 258 255 254 254 252 249 245 241 239 240 235 203 166 152 148 147 145 140 132 123 118 121 131 138 138 134 133 135 134 132
308 310 313 308 305 306 310 312 315 323 328 329 327 326 329 329 326 323 322 325 330 332 329 328 330 331 328 323 318 316 314 311 312 313 309 300 295 293 291 290 290 289 287 287 286 284 284 286 286 284 281 279 276 272 267 264 262 259 256 252 250 249 247 242 240 239 231 203 176 162 154 150 149 148 146 140 133 126 121 119 121 123 124 128 133 134 134
313 322 328 321 316 317 319 321 328 340 342 337 330 331 334 334 330 328 331 338 344 345 342 342 342 338 332 328 325 321 317 314 313 310 305 301 300 299 297 296 295 292 290 288 286 285 286 287 286 282 279 276 274 270 267 264 261 258 256 252 250 249 247 243 239 231 208 183 169 157 150 149 150 148 144 140 135 129 124 120 115 112 114 119 125 132 135
326 339 338 323 310 309 315 321 330 344 347 339 338 342 344 341 339 342 351 358 357 354 350 348 345 340 335 332 328 322 317 313 309 305 302 300 298 295 294 293 290 290 290 288 286 288 291 293 291 287 282 279 275 269 264 261 259 257 254 250 247 248 246 240 230 211 187 172 162 153 149 148 144 141 139 135 130 127 125 123 121 118 117 120 124 130 135
333 333 324 313 307 312 321 329 336 349 356 355 357 358 355 354 355 359 5 6 2 358 355 352 348 343 338 334 329 323 317 311 308 306 303 300 297 295 294 292 289 285 283 284 290 302 310 306 301 295 288 283 277 269 261 254 249 247 245 242 241 240 234 220 206 188 168 157 152 151 148 143 139 137 135 131 129 128 126 124 125 128 131 134 136 139 142
326 325 320 319 324 331 339 344 351 2 10 8 6 6 6 7 7 6 5 4 4 4 0 355 350 347 344 340 335 330 324 319 316 313 308 304 306 309 306 297 284 277 280 294 321 340 337 331 327 318 307 300 292 277 260 249 242 236 233 232 231 230 224 208 187 167 151 144 143 144 142 138 137 136 133 130 130 128 127 130 136 140 142 145 147 149 153
319 319 320 330 343 346 347 357 9 16 21 17 10 11 13 10 7 6 5 4 5 3 359 354 351 350 349 348 344 339 335 331 329 329 330 335 344 349 350 352 357 43 65 44 25 10 7 7 3 352 333 318 315 297 261 246 239 230 223 221 217 212 206 191 168 149 140 137 139 140 140 138 138 137 135 135 136 136 138 144 148 149 151 154 156 158 162
317 320 329 345 354 350 355 16 25 23 26 22 16 16 14 8 8 9 3 360 2 359 353 350 347 344 345 349 351 349 347 346 351 357 2 8 15 17 18 35 63 77 71 49 32 25 21 16 12 13 9 356 355 1 244 219 212 196 183 178 169 160 155 150 142 137 136 138 140 140 140 138 138 139 142 145 148 150 153 157 162 165 167 169 171 174 175
320 327 342 355 356 357 14 31 27 26 29 24 16 14 11 7 9 8 360 358 359 355 349 344 340 338 343 353 359 1 2 4 9 10 8 8 12 16 17 42 60 60 53 44 38 32 24 16 16 26 33 32 36 56 88 117 127 126 127 131 130 128 128 130 132 132 134 136 138 139 139 141 144 149 155 157 156 157 163 170 174 172 167 163 162 165 170
328 335 356 12 10 12 25 29 27 31 33 21 9 5 6 8 10 8 4 2 359 352 345 342 338 338 349 3 9 10 11 12 12 9 6 4 6 7 20 49 56 55 51 45 40 34 23 17 24 38 47 50 58 71 85 96 102 105 108 111 114 116 120 125 129 130 131 133 136 139 143 146 149 155 158 157 155 162 173 176 163 146 137 134 138 147 156
357 31 60 63 57 50 45 40 32 26 25 17 360 356 8 15 12 6 4 3 357 350 346 341 339 344 1 12 14 12 11 10 10 9 11 13 14 23 41 51 51 49 46 41 36 30 24 24 34 50 59 61 66 76 87 95 99 102 105 108 112 115 119 122 123 123 125 129 133 137 141 144 149 156 160 159 163 173 176 157 131 121 118 118 125 138 145
74 94 96 88 76 58 46 40 31 22 22 16 352 356 18 24 10 356 354 353 352 353 351 345 343 353 8 16 17 13 9 9 11 13 17 22 26 35 46 47 41 37 38 34 27 25 28 34 42 55 66 68 68 74 84 92 98 103 106 108 108 107 107 109 110 112 117 123 127 132 138 143 150 156 157 154 153 153 138 119 113 112 110 108 110 115 115
113 114 108 95 73 52 36 25 12 4 7 13 13 18 28 27 8 350 342 334 341 355 357 351 347 355 7 14 20 19 15 14 15 18 22 29 35 42 46 43 35 31 29 21 15 21 32 41 47 54 63 68 68 70 74 79 85 93 98 100 100 101 104 106 106 107 109 111 111 112 115 117 117 118 118 116 112 106 102 102 105 107 107 108 110 111 114
110 103 99 82 52 39 27 18 4 346 347 6 25 31 31 28 11 349 339 335 344 1 3 357 353 358 4 9 20 26 23 18 16 19 24 32 42 47 47 41 33 29 23 13 15 26 37 45 48 51 55 59 65 69 69 69 71 75 80 84 87 91 95 96 95 94 95 97 97 97 99 99 97 96 98 100 100 100 100 101 104 109 113 116 118 116 110
129 122 118 95 46 21 4 7 6 351 351 6 21 25 27 26 16 1 357 0 8 14 11 4 1 3 5 6 15 29 31 25 21 20 24 31 42 50 51 43 35 32 29 26 30 37 44 47 48 49 51 56 61 64 66 68 69 70 73 78 82 84 87 88 88 87 89 91 93 94 93 94 95 97 100 102 104 106 105 103 104 109 112 112 110 103 91
157 151 155 178 219 290 317 346 1 352 353 9 17 20 25 24 16 13 14 12 12 19 19 12 7 8 11 10 12 26 38 36 29 25 25 30 37 44 46 38 31 31 35 38 40 43 47 49 50 48 50 57 66 67 64 65 68 69 71 75 77 79 81 84 84 84 86 89 91 92 91 92 94 98 101 102 104 105 104 102 99 100 103 102 99 94 89
176 171 185 207 232 273 286 310 14 4 1 15 25 27 31 29 22 22 22 15 12 19 24 19 14 14 17 18 18 21 31 39 38 34 31 29 30 34 36 29 24 27 35 41 44 47 49 50 50 49 49 55 67 73 70 68 68 68 70 73 75 75 77 79 79 82 86 89 90 91 93 94 94 95 95 95 95 94 95 95 91 90 93 95 93 93 95
193 196 212 220 228 263 274 285 25 12 1 19 35 38 40 38 30 29 29 22 18 21 24 23 21 21 23 24 23 21 23 29 36 41 40 35 31 33 33 24 22 27 35 40 44 48 51 50 50 51 52 55 63 69 71 69 68 66 67 71 72 73 75 78 79 82 86 89 91 92 94 94 93 91 89 88 88 86 87 87 83 80 80 79 78 81 85
204 207 216 221 227 245 255 268 354 359 13 35 38 40 49 49 39 34 35 32 28 27 28 25 23 23 27 29 29 26 25 25 27 34 42 43 38 37 34 26 24 31 39 41 43 46 48 48 50 53 55 56 61 65 67 65 64 64 66 68 70 72 74 76 78 80 82 83 85 87 88 88 88 87 84 82 81 79 79 79 77 74 71 68 65 66 69
210 217 220 219 231 245 244 237 256 359 46 57 46 42 54 58 51 45 44 41 38 37 36 32 27 23 25 33 36 33 29 28 26 28 33 37 36 33 30 26 28 34 40 43 44 44 45 47 50 54 57 58 59 63 65 64 62 63 65 66 68 70 72 72 73 75 76 78 80 82 82 82 82 82 81 81 79 77 75 73 70 67 64 62 58 57 58
213 222 220 213 229 244 241 200 136 132 112 94 83 66 57 60 64 62 56 51 50 48 44 40 36 27 23 35 54 56 47 40 36 35 35 36 32 25 24 28 35 39 41 42 43 44 46 48 51 54 59 61 61 61 63 64 63 65 67 69 69 68 68 68 69 70 71 74 77 79 79 79 79 79 78 78 78 76 75 74 71 68 63 60 56 53 51
217 225 225 224 233 242 240 132 110 152 259 234 153 110 80 66 81 82 74 69 69 66 58 52 47 39 31 34 53 69 66 56 48 45 46 48 42 29 24 30 39 44 45 45 45 45 46 50 53 54 56 60 62 61 61 61 60 61 63 66 68 67 66 66 67 67 67 70 74 77 78 80 81 82 81 79 78 78 77 75 73 71 67 62 58 55 53
214 219 227 235 238 235 219 149 154 200 247 255 193 124 105 94 103 103 96 90 87 83 77 67 58 52 47 43 42 48 58 62 55 48 45 47 46 37 27 26 34 43 47 48 48 47 47 50 54 55 55 57 60 61 61 61 61 60 60 62 64 66 68 70 71 70 70 72 76 79 81 81 82 83 82 79 77 75 74 72 69 66 63 60 57 53 50
214 209 220 236 237 221 194 187 202 216 232 242 192 135 138 157 160 142 134 128 116 105 96 87 79 73 69 64 56 49 50 59 62 53 41 39 44 42 34 31 37 46 48 45 45 46 47 48 50 52 54 56 59 60 61 62 63 63 63 63 63 64 66 69 70 71 73 74 76 77 78 78 79 81 80 79 77 74 72 71 71 66 59 57 54 48 45
215 204 219 240 241 219 189 196 222 229 218 202 179 163 173 193 195 177 153 139 130 117 104 99 103 101 93 85 78 71 64 65 73 75 64 53 50 47 41 39 41 45 47 44 40 39 41 44 46 47 49 53 56 59 61 63 64 65 66 67 67 67 67 69 70 72 75 74 74 74 76 77 78 80 79 78 77 72 65 62 63 61 57 56 54 46 41
216 204 214 231 235 219 196 204 224 225 205 188 183 180 187 206 212 187 147 132 136 127 109 98 100 104 98 91 89 88 83 80 81 83 82 77 70 62 55 50 47 47 51 53 47 40 38 40 43 46 48 51 54 57 59 61 63 63 64 65 66 66 66 66 69 73 75 76 75 78 80 80 78 78 79 77 75 71 65 60 57 53 52 57 57 45 33
222 216 216 223 225 216 202 207 228 232 212 186 178 186 198 209 208 167 145 163 185 157 126 115 108 102 99 96 93 91 90 88 84 78 75 77 74 67 59 56 54 53 56 59 58 53 48 45 46 49 53 54 55 57 58 60 62 62 62 62 64 67 69 68 66 67 70 73 74 76 79 80 76 73 73 74 73 72 70 65 57 52 53 59 62 55 42
227 227 226 226 228 223 209 207 228 241 230 190 169 182 206 209 184 151 162 204 217 169 132 127 117 103 101 104 102 98 95 91 86 81 75 70 65 59 56 54 52 50 53 57 58 58 57 54 53 54 56 57 58 59 60 60 62 63 64 64 64 65 70 74 70 67 70 75 73 69 72 77 76 70 66 66 67 67 67 64 59 56 56 57 59 58 56